Weather History for Erie, CO

Change the Weather History Date:

Thursday, April 17, 2014

  Actual Average (KBJC) Record (KBJC)
Temperature  
Mean Temperature 46 °F -  
Max Temperature 64 °F 56 °F 82 °F (2006)
Min Temperature 29 °F 35 °F 19 °F (1999)
Degree Days  
Heating Degree Days 18    
Moisture  
Dew Point 30 °F    
Average Humidity 59    
Maximum Humidity 95    
Minimum Humidity 18    
Precipitation  
Precipitation 0.00 in - - ()
Sea Level Pressure  
Sea Level Pressure 30.04 in    
Wind  
Wind Speed 3 mph (SSE)    
Max Wind Speed 9 mph    
Max Gust Speed 16 mph    
Visibility 10 miles    
Events      
Averages and records for this station are not official NWS values.
T = Trace of Precipitation, MM = Missing Value Source: NWS Daily Summary

Daily Weather History Graph

Daily Weather History Graph

Search for Another Location

Airport:

Trip Planner

Search our weather history database for the weather conditions in past years. The results will help you decide how hot, cold, wet, or windy it might be!

Date:

Astronomy

Apr. 17, 2014 Rise Set
Actual Time 6:19 AM MDT 7:40 PM MDT
Civil Twilight 5:51 AM MDT 8:09 PM MDT
Nautical Twilight 5:17 AM MDT 8:43 PM MDT
Astronomical Twilight 4:41 AM MDT 9:18 PM MDT
Moon 10:29 PM MDT (4/17) 7:53 AM MDT (4/17)
Length of Visible Light 14h 17m
Length of Day
13h 21m
Waning Gibbous, 93% of the Moon is Illuminated
Apr 17
Waning Gibbous
Apr 22
Last Quarter
Apr 29
New
May 6
First Quarter
May 14
Full

Hourly Weather History & Observations

Time (MDT) Temp. Windchill Dew Point Humidity Pressure Visibility Wind Dir Wind Speed Gust Speed Precip Events Conditions
12:16 AM 43.3 °F 39.2 °F 31.1 °F 62% 30.09 in 10.0 mi SSW 6.9 mph - N/A   Overcast
12:36 AM 41.9 °F 38.2 °F 31.1 °F 66% 30.09 in 10.0 mi South 5.8 mph - N/A   Overcast
12:56 AM 40.6 °F 38.6 °F 31.6 °F 70% 30.09 in 10.0 mi SW 3.5 mph - N/A   Overcast
1:16 AM 40.1 °F 38.0 °F 31.6 °F 72% 30.09 in 10.0 mi SSW 3.5 mph - N/A   Overcast
1:36 AM 39.4 °F - 31.8 °F 74% 30.08 in 10.0 mi Calm Calm - N/A   Overcast
1:56 AM 39.9 °F 35.8 °F 32.0 °F 73% 30.08 in 10.0 mi South 5.8 mph - N/A   Overcast
2:16 AM 39.0 °F 35.7 °F 32.0 °F 76% 30.07 in 10.0 mi SSW 4.6 mph - N/A   Mostly Cloudy
2:36 AM 38.1 °F 35.7 °F 31.6 °F 77% 30.07 in 10.0 mi South 3.5 mph - N/A   Scattered Clouds
2:56 AM 36.5 °F 33.9 °F 31.1 °F 81% 30.07 in 10.0 mi South 3.5 mph - N/A   Clear
3:16 AM 34.5 °F 30.4 °F 30.7 °F 86% 30.06 in 10.0 mi South 4.6 mph - N/A   Clear
3:36 AM 33.8 °F 30.8 °F 30.7 °F 89% 30.06 in 10.0 mi SSW 3.5 mph - N/A   Clear
3:56 AM 32.9 °F - 30.7 °F 92% 30.05 in 10.0 mi Calm Calm - N/A   Clear
4:16 AM 34.2 °F 31.2 °F 31.3 °F 89% 30.05 in 10.0 mi South 3.5 mph - N/A   Clear
4:36 AM 32.0 °F - 30.2 °F 93% 30.06 in 10.0 mi Calm Calm - N/A   Clear
4:56 AM 32.2 °F - 29.3 °F 89% 30.06 in 10.0 mi Calm Calm - N/A   Clear
5:16 AM 31.8 °F - 29.8 °F 92% 30.06 in 10.0 mi Calm Calm - N/A   Clear
5:36 AM 30.9 °F - 29.7 °F 95% 30.05 in 10.0 mi Calm Calm - N/A   Clear
5:56 AM 29.3 °F - 27.7 °F 94% 30.06 in 10.0 mi Calm Calm - N/A   Clear
6:16 AM 30.0 °F - 28.4 °F 94% 30.07 in 10.0 mi Calm Calm - N/A   Clear
6:36 AM 29.7 °F 26.1 °F 28.2 °F 94% 30.07 in 10.0 mi West 3.5 mph - N/A   Clear
6:56 AM 30.4 °F - 28.9 °F 94% 30.08 in 10.0 mi Calm Calm - N/A   Clear
7:16 AM 31.8 °F - 30.4 °F 94% 30.09 in 10.0 mi Calm Calm - N/A   Clear
7:36 AM 34.7 °F 31.8 °F 32.2 °F 91% 30.09 in 10.0 mi NNW 3.5 mph - N/A   Clear
7:56 AM 35.4 °F 32.6 °F 32.5 °F 89% 30.10 in 10.0 mi North 3.5 mph - N/A   Clear
8:16 AM 36.7 °F 32.0 °F 33.1 °F 87% 30.11 in 10.0 mi North 5.8 mph - N/A   Clear
8:36 AM 38.3 °F 34.8 °F 33.1 °F 81% 30.11 in 10.0 mi North 4.6 mph - N/A   Clear
8:56 AM 39.2 °F - 33.8 °F 81% 30.11 in 10.0 mi Calm Calm - N/A   Clear
9:16 AM 40.8 °F - 34.9 °F 79% 30.11 in 10.0 mi Calm Calm - N/A   Clear
9:36 AM 42.1 °F 40.2 °F 34.2 °F 74% 30.11 in 10.0 mi North 3.5 mph - N/A   Clear
10:16 AM 44.8 °F - 32.9 °F 63% 30.10 in 10.0 mi Calm Calm - N/A   Clear
10:36 AM 46.6 °F - 33.4 °F 60% 30.09 in 10.0 mi NW 3.5 mph - N/A   Clear
10:56 AM 47.3 °F - 33.4 °F 59% 30.09 in 10.0 mi North 4.6 mph - N/A   Clear
11:16 AM 49.6 °F - 33.4 °F 54% 30.09 in 10.0 mi Calm Calm - N/A   Clear
11:36 AM 51.4 °F - 32.7 °F 49% 30.08 in 10.0 mi Calm Calm - N/A   Clear
11:56 AM 52.0 °F - 33.4 °F 49% 30.08 in 10.0 mi North 3.5 mph - N/A   Clear
12:16 PM 54.0 °F - 32.7 °F 45% 30.07 in 10.0 mi NE 5.8 mph - N/A   Clear
12:36 PM 55.4 °F - 31.5 °F 40% 30.06 in 10.0 mi North 3.5 mph - N/A   Clear
12:56 PM 57.4 °F - 30.6 °F 36% 30.05 in 10.0 mi East 5.8 mph - N/A   Clear
1:16 PM 58.3 °F - 26.4 °F 30% 30.04 in 10.0 mi Calm Calm - N/A   Clear
1:36 PM 59.4 °F - 26.6 °F 29% 30.04 in 10.0 mi East 4.6 mph - N/A   Clear
1:56 PM 59.0 °F - 24.4 °F 27% 30.03 in 10.0 mi Calm Calm - N/A   Clear
2:16 PM 60.3 °F - 25.7 °F 27% 30.02 in 10.0 mi Calm Calm - N/A   Clear
2:36 PM 61.3 °F - 26.1 °F 26% 30.02 in 10.0 mi East 4.6 mph - N/A   Clear
2:56 PM 61.3 °F - 23.9 °F 24% 30.01 in 10.0 mi Calm Calm - N/A   Clear
3:16 PM 62.8 °F - 23.5 °F 22% 30.00 in 10.0 mi Calm Calm - N/A   Clear
3:36 PM 63.5 °F - 23.4 °F 22% 29.99 in 10.0 mi SE 4.6 mph - N/A   Clear
3:56 PM 63.5 °F - 21.4 °F 20% 29.99 in 10.0 mi Calm Calm - N/A   Clear
4:16 PM 64.4 °F - 21.9 °F 20% 29.98 in 10.0 mi Calm Calm - N/A   Clear
4:36 PM 63.9 °F - 19.0 °F 18% 29.97 in 10.0 mi Calm Calm - N/A   Clear
4:56 PM 64.8 °F - 20.8 °F 19% 29.97 in 10.0 mi South 6.9 mph 16.1 mph N/A   Clear
5:16 PM 64.6 °F - 22.3 °F 20% 29.96 in 10.0 mi SSE 6.9 mph - N/A   Clear
5:36 PM 64.2 °F - 22.3 °F 20% 29.96 in 10.0 mi SSE 5.8 mph - N/A   Clear
5:56 PM 64.2 °F - 25.7 °F 23% 29.96 in 10.0 mi SE 9.2 mph - N/A   Clear
6:16 PM 63.5 °F - 25.7 °F 24% 29.96 in 10.0 mi SE 6.9 mph - N/A   Clear
6:36 PM 63.0 °F - 25.7 °F 24% 29.96 in 10.0 mi SSE 8.1 mph - N/A   Clear
6:56 PM 61.7 °F - 26.4 °F 26% 29.96 in 10.0 mi ESE 8.1 mph - N/A   Clear
7:16 PM 58.3 °F - 27.3 °F 31% 29.96 in 10.0 mi ESE 4.6 mph - N/A   Clear
7:36 PM 55.8 °F - 32.5 °F 41% 29.96 in 10.0 mi ESE 6.9 mph - N/A   Clear
7:56 PM 54.3 °F - 34.2 °F 47% 29.96 in 10.0 mi ESE 8.1 mph - N/A   Clear
8:16 PM 55.0 °F - 34.2 °F 45% 29.97 in 10.0 mi SSE 6.9 mph - N/A   Clear
8:36 PM 54.1 °F - 34.7 °F 48% 29.98 in 10.0 mi SSE 6.9 mph - N/A   Clear
8:56 PM 52.3 °F - 34.3 °F 50% 29.98 in 10.0 mi Calm Calm - N/A   Clear
9:16 PM 51.4 °F - 35.1 °F 54% 29.99 in 10.0 mi Calm Calm - N/A   Clear
9:36 PM 49.3 °F - 35.4 °F 59% 29.99 in 10.0 mi Calm Calm - N/A   Clear
9:56 PM 49.3 °F - 34.9 °F 58% 30.00 in 10.0 mi Calm Calm - N/A   Clear
10:16 PM 47.3 °F - 35.2 °F 63% 30.00 in 10.0 mi Calm Calm - N/A   Clear
10:36 PM 44.6 °F 43.1 °F 36.0 °F 72% 29.99 in 10.0 mi SSW 3.5 mph - N/A   Clear
10:56 PM 44.1 °F - 35.1 °F 71% 30.00 in 10.0 mi Calm Calm - N/A   Clear
11:16 PM 42.8 °F - 35.4 °F 75% 30.00 in 10.0 mi Calm Calm - N/A   Clear
11:36 PM 43.2 °F 40.5 °F 35.6 °F 75% 30.00 in 10.0 mi SW 4.6 mph - N/A   Clear
11:56 PM 41.0 °F - 35.1 °F 79% 30.00 in 10.0 mi Calm Calm - N/A   Clear